This is the latest recevied weather packets stored in our database for station/object RV1CJ-14. If no packets are shown the sender has not sent any weather packets the latest 10 day(s).
| Time | Temp. | Humidity | Pressure | Rain* | Wind** | Luminosity | Snow |
|---|---|---|---|---|---|---|---|
| 1777297204 | 8.89° C | 44% | 1002.3 hPa | 0 mm | - | 69 W/m² | - |
| 1777296603 | 8.89° C | 43% | 1002.3 hPa | 0 mm | - | 109 W/m² | - |
| 1777296004 | 8.89° C | 44% | 1002.3 hPa | 0 mm | - | 79 W/m² | - |
| 1777295405 | 8.89° C | 43% | 1002.1 hPa | 0 mm | - | 84 W/m² | - |
| 1777294804 | 8.89° C | 45% | 1002.1 hPa | 0 mm | - | 97 W/m² | - |
| 1777294205 | 8.89° C | 46% | 1002.2 hPa | 0 mm | - | 72 W/m² | - |
| 1777293605 | 8.89° C | 45% | 1002.1 hPa | 0 mm | - | 90 W/m² | - |
| 1777293004 | 8.33° C | 45% | 1002.2 hPa | 0 mm | - | 83 W/m² | - |
| 1777292404 | 8.33° C | 47% | 1002.1 hPa | 0 mm | - | 51 W/m² | - |
| 1777291804 | 8.33° C | 48% | 1002.2 hPa | 0 mm | - | 69 W/m² | - |
| 1777291204 | 8.33° C | 49% | 1002.1 hPa | 0 mm | - | 105 W/m² | - |
| 1777290604 | 8.33° C | 50% | 1002.1 hPa | 0 mm | - | 70 W/m² | - |
| 1777290004 | 8.33° C | 49% | 1002.2 hPa | 0 mm | - | 56 W/m² | - |
| 1777289406 | 7.78° C | 49% | 1002.3 hPa | 0 mm | - | 63 W/m² | - |
| 1777288803 | 7.78° C | 50% | 1002.3 hPa | 0 mm | - | 63 W/m² | - |
| 1777288203 | 7.78° C | 52% | 1002.2 hPa | 0 mm | - | 60 W/m² | - |
| 1777287605 | 7.78° C | 52% | 1002.2 hPa | 0 mm | - | 46 W/m² | - |
| 1777287004 | 7.78° C | 53% | 1002.3 hPa | 0 mm | - | 60 W/m² | - |
| 1777286403 | 7.22° C | 55% | 1002.3 hPa | 0 mm | - | 54 W/m² | - |
| 1777285806 | 6.67° C | 52% | 1002.3 hPa | 0 mm | - | 51 W/m² | - |
| 1777285204 | 6.67° C | 54% | 1002.5 hPa | 0 mm | - | 58 W/m² | - |
| 1777284604 | 6.67° C | 56% | 1002.4 hPa | 0 mm | - | 76 W/m² | - |
| 1777284006 | 6.67° C | 56% | 1002.4 hPa | 0 mm | - | 98 W/m² | - |
| 1777283404 | 6.67° C | 59% | 1002.3 hPa | 0 mm | - | 693 W/m² | - |
| 1777282804 | 6.67° C | 59% | 1002.2 hPa | 0 mm | - | 738 W/m² | - |
* Rain latest hour (hover to see other rain measurements)
** Current wind speed in m/s (hover to see current wind gust speed)